Location: Kerb�bon
(47.7970°N, 3.3487°W)
Time: 13:08:15
(UTC+00:00)

Cosmos 1680 Rocket - Pass Details

Date: 12 May 2021
Orbit: 759 x 781 km, 74.1° (Epoch: 18 June)

Event Time Altitude Azimuth Distance (km) Brightness Sun altitude
Rises 21:28:41 0° 341° (NNW) 3,277 8.2 -14.7°
Reaches altitude 10° 21:31:11 10° 348° (NNW) 2,346 7.0 -14.9°
Maximum altitude 21:36:18 45° 61° (ENE) 1,064 4.1 -15.5°
Enters shadow 21:39:16 23° 121° (ESE) 1,615 4.6 -15.8°
